This is the latest recevied weather packets stored in our database for station/object K0NV. If no packets are shown the sender has not sent any weather packets the latest 10 day(s).
| Time | Temp. | Humidity | Pressure | Rain* | Wind** | Luminosity | Snow |
|---|---|---|---|---|---|---|---|
| 1777986386 | 13.33° C | 99% | 1008.1 hPa | 0 mm | - | 87 W/m² | - |
| 1777986084 | 13.33° C | 99% | 1008 hPa | 0 mm | - | 100 W/m² | - |
| 1777985780 | 13.33° C | 99% | 1007.9 hPa | 0 mm | - | 106 W/m² | - |
| 1777985477 | 13.33° C | 99% | 1007.7 hPa | 0 mm | - | 118 W/m² | - |
| 1777985173 | 13.33° C | 99% | 1007.9 hPa | 0 mm | - | 103 W/m² | - |
| 1777984870 | 13.89° C | 99% | 1008 hPa | 0 mm | - | 82 W/m² | - |
| 1777984566 | 13.89° C | 99% | 1007.9 hPa | 0 mm | - | 67 W/m² | - |
| 1777984263 | 13.89° C | 99% | 1007.9 hPa | 0 mm | - | 58 W/m² | - |
| 1777983959 | 13.89° C | 99% | 1007.4 hPa | 0 mm | - | 52 W/m² | - |
| 1777983656 | 13.89° C | 99% | 1007.5 hPa | 0 mm | - | 50 W/m² | - |
| 1777983347 | 13.89° C | 99% | 1007.7 hPa | 0 mm | - | 47 W/m² | - |
| 1777983044 | 13.89° C | 99% | 1007.3 hPa | 0 mm | - | 56 W/m² | - |
| 1777982740 | 13.89° C | 99% | 1007.2 hPa | 0 mm | - | 39 W/m² | - |
| 1777982436 | 13.89° C | 99% | 1007.2 hPa | 0 mm | - | 34 W/m² | - |
| 1777982131 | 13.89° C | 99% | 1007.2 hPa | 0 mm | - | 32 W/m² | - |
| 1777981829 | 13.89° C | 99% | 1007.4 hPa | 0 mm | - | 29 W/m² | - |
| 1777981525 | 13.89° C | 99% | 1007.2 hPa | 0 mm | - | 20 W/m² | - |
| 1777981222 | 14.44° C | 99% | 1007.2 hPa | 0 mm | - | 19 W/m² | - |
| 1777980918 | 14.44° C | 99% | 1007.2 hPa | 0 mm | - | 12 W/m² | - |
| 1777980615 | 14.44° C | 99% | 1007.2 hPa | 0 mm | - | 6 W/m² | - |
| 1777980310 | 15° C | 99% | 1007.7 hPa | 0 mm | - | 4 W/m² | - |
| 1777980009 | 15° C | 99% | 1007.1 hPa | 0 mm | - | 2 W/m² | - |
| 1777979703 | 15° C | 99% | 1007 hPa | 0 mm | - | 1 W/m² | - |
| 1777979399 | 15° C | 99% | 1007.1 hPa | 1.78 mm | - | 0 W/m² | - |
| 1777979096 | 15° C | 99% | 1007.2 hPa | 1.78 mm | - | 0 W/m² | - |
* Rain latest hour (hover to see other rain measurements)
** Current wind speed in m/s (hover to see current wind gust speed)